Terminal Aerodrome Forecast
Issued by NWS

Home | Current Version | Previous Version | Text Only | Print | Product List | Glossary On
Versions: 1 2 3 4 5 6 7 8 9 10 11 12 13 14 15 16 17 18 19 20 21 22 23 24 25 26 27 28 29
000
FTAK31 PANC 290540
TAFAHO
TAF
PAHO 290540Z 2906/3006 VRB03KT 6SM -RA BR SCT025 OVC040
      TEMPO 2906/2910 4SM -RA BR BKN025 OVC040
     FM291400 VRB03KT P6SM SCT030 BKN060
     FM292000 26011KT P6SM FEW030 BKN070=

USA.gov is the U.S. government's official web portal to all federal, state and local government web resources and services.